Location: ??
(35.5052°N, 139.7262°E)
Time: 03:38:59
(UTC+00:00)

Meteor 2-3 Rocket - Pass Details

Date: 20 June 2021
Orbit: 842 x 885 km, 81.2° (Epoch: 26 July)

Event Time Altitude Azimuth Distance (km) Brightness Sun altitude
Exits shadow 16:52:06 55° 189° (S) 1,015 3.7 -23.6°
Maximum altitude 16:53:26 89° 275° (W) 851 3.6 -23.4°
Drops below altitude 10° 16:59:02 10° 8° (N) 2,468 7.0 -22.8°
Sets 17:01:27 0° 9° (N) 3,405 7.9 -22.5°
